Time,TemperatureF,DewpointF,PressureIn,WindDirection,WindDirectionDegrees,WindSpeedMPH,WindSpeedGustMPH,Humidity,HourlyPrecipIn,Conditions,Clouds,dailyrainin,SoftwareType,DateUTC
2013-10-09 00:04:00,55.3,46.0,30.27,NNE,28,0.0,0.0,71,0.00,,,0.04,weatherlink.com 1.10,2013-10-09 04:04:00,
2013-10-09 00:19:00,54.2,46.0,30.27,NNE,28,0.0,0.0,73,0.00,,,0.00,weatherlink.com 1.10,2013-10-09 04:19:00,
2013-10-09 00:34:00,53.5,46.0,30.27,NNE,28,0.0,0.0,75,0.00,,,0.00,weatherlink.com 1.10,2013-10-09 04:34:00,
2013-10-09 00:49:00,52.8,46.0,30.27,NNE,28,0.0,0.0,77,0.00,,,0.00,weatherlink.com 1.10,2013-10-09 04:49:00,
2013-10-09 01:04:00,52.3,46.0,30.27,NNE,28,0.0,0.0,78,0.00,,,0.00,weatherlink.com 1.10,2013-10-09 05:04:00,
2013-10-09 01:19:00,51.7,45.0,30.27,NNE,28,0.0,0.0,79,0.00,,,0.00,weatherlink.com 1.10,2013-10-09 05:19:00,
2013-10-09 01:34:00,51.1,45.0,30.27,NNE,28,0.0,0.0,80,0.00,,,0.00,weatherlink.com 1.10,2013-10-09 05:34:00,
2013-10-09 01:49:00,50.7,45.0,30.28,NNE,28,0.0,0.0,81,0.00,,,0.00,weatherlink.com 1.10,2013-10-09 05:49:00,
2013-10-09 02:04:00,50.2,45.0,30.28,NNE,28,0.0,0.0,82,0.00,,,0.00,weatherlink.com 1.10,2013-10-09 06:04:00,
2013-10-09 02:19:00,49.9,45.0,30.28,NNE,28,0.0,0.0,82,0.00,,,0.00,weatherlink.com 1.10,2013-10-09 06:19:00,
2013-10-09 02:34:00,49.8,45.0,30.28,NNE,28,0.0,0.0,82,0.00,,,0.00,weatherlink.com 1.10,2013-10-09 06:34:00,
2013-10-09 02:49:00,49.5,45.0,30.28,NNE,28,0.0,0.0,83,0.00,,,0.00,weatherlink.com 1.10,2013-10-09 06:49:00,
2013-10-09 03:04:00,49.2,44.0,30.28,NNE,28,0.0,0.0,83,0.00,,,0.00,weatherlink.com 1.10,2013-10-09 07:04:00,
2013-10-09 03:19:00,48.9,44.0,30.28,NNE,28,0.0,0.0,83,0.00,,,0.00,weatherlink.com 1.10,2013-10-09 07:19:00,
2013-10-09 03:34:00,48.6,44.0,30.28,NNE,28,0.0,0.0,83,0.00,,,0.00,weatherlink.com 1.10,2013-10-09 07:34:00,
2013-10-09 03:49:00,48.0,43.0,30.28,NNE,28,0.0,0.0,84,0.00,,,0.00,weatherlink.com 1.10,2013-10-09 07:49:00,
2013-10-09 04:04:00,47.6,43.0,30.28,NNE,28,0.0,0.0,84,0.00,,,0.00,weatherlink.com 1.10,2013-10-09 08:04:00,
2013-10-09 04:19:00,47.1,43.0,30.29,NNE,28,0.0,0.0,85,0.00,,,0.00,weatherlink.com 1.10,2013-10-09 08:19:00,
2013-10-09 04:34:00,46.7,43.0,30.29,NNE,28,0.0,0.0,86,0.00,,,0.00,weatherlink.com 1.10,2013-10-09 08:34:00,
2013-10-09 04:49:00,46.4,43.0,30.29,NNE,28,0.0,0.0,86,0.00,,,0.00,weatherlink.com 1.10,2013-10-09 08:49:00,
2013-10-09 05:04:00,46.2,43.0,30.30,NNE,28,0.0,0.0,87,0.00,,,0.00,weatherlink.com 1.10,2013-10-09 09:04:00,
2013-10-09 05:21:00,46.0,42.0,30.30,NNE,28,0.0,0.0,87,0.00,,,0.00,weatherlink.com 1.10,2013-10-09 09:21:00,
2013-10-09 05:35:00,45.8,43.0,30.31,NNE,28,0.0,0.0,88,0.00,,,0.00,weatherlink.com 1.10,2013-10-09 09:35:00,
2013-10-09 05:50:00,45.7,42.0,30.31,NNE,28,0.0,0.0,88,0.00,,,0.00,weatherlink.com 1.10,2013-10-09 09:50:00,
2013-10-09 06:05:00,45.2,42.0,30.31,NNE,28,0.0,0.0,88,0.00,,,0.00,weatherlink.com 1.10,2013-10-09 10:05:00,
2013-10-09 06:20:00,44.9,42.0,30.32,NNE,28,0.0,0.0,89,0.00,,,0.00,weatherlink.com 1.10,2013-10-09 10:20:00,
2013-10-09 06:35:00,44.8,42.0,30.32,NNE,28,0.0,0.0,89,0.00,,,0.00,weatherlink.com 1.10,2013-10-09 10:35:00,
2013-10-09 06:50:00,44.3,41.0,30.32,NNE,28,0.0,0.0,89,0.00,,,0.00,weatherlink.com 1.10,2013-10-09 10:50:00,
2013-10-09 07:05:00,44.2,41.0,30.33,NNE,28,0.0,0.0,89,0.00,,,0.00,weatherlink.com 1.10,2013-10-09 11:05:00,
2013-10-09 07:20:00,43.9,41.0,30.33,NNE,28,0.0,0.0,89,0.00,,,0.00,weatherlink.com 1.10,2013-10-09 11:20:00,
2013-10-09 07:35:00,43.6,41.0,30.33,NNE,28,0.0,0.0,90,0.00,,,0.00,weatherlink.com 1.10,2013-10-09 11:35:00,
2013-10-09 07:50:00,43.5,41.0,30.33,NNE,28,0.0,0.0,90,0.00,,,0.00,weatherlink.com 1.10,2013-10-09 11:50:00,
2013-10-09 08:05:00,43.9,42.0,30.33,NNE,28,0.0,0.0,91,0.00,,,0.00,weatherlink.com 1.10,2013-10-09 12:05:00,
2013-10-09 08:20:00,44.1,42.0,30.33,NNE,28,0.0,0.0,91,0.00,,,0.00,weatherlink.com 1.10,2013-10-09 12:20:00,
2013-10-09 08:35:00,44.3,42.0,30.33,NNE,28,0.0,0.0,91,0.00,,,0.00,weatherlink.com 1.10,2013-10-09 12:35:00,
2013-10-09 08:50:00,45.4,43.0,30.34,ENE,68,0.0,2.0,91,0.00,,,0.00,weatherlink.com 1.10,2013-10-09 12:50:00,
2013-10-09 09:05:00,46.5,44.0,30.34,NNE,18,0.0,2.0,90,0.00,,,0.00,weatherlink.com 1.10,2013-10-09 13:05:00,
2013-10-09 09:20:00,49.9,46.0,30.34,NNE,18,0.0,0.0,87,0.00,,,0.00,weatherlink.com 1.10,2013-10-09 13:20:00,
2013-10-09 09:35:00,52.3,46.0,30.35,NNE,27,0.0,3.0,79,0.00,,,0.00,weatherlink.com 1.10,2013-10-09 13:35:00,
2013-10-09 09:50:00,55.0,47.0,30.35,SE,129,2.0,3.0,74,0.00,,,0.00,weatherlink.com 1.10,2013-10-09 13:50:00,
2013-10-09 10:05:00,56.9,47.0,30.35,East,101,0.0,3.0,69,0.00,,,0.00,weatherlink.com 1.10,2013-10-09 14:05:00,
2013-10-09 10:20:00,59.2,47.0,30.35,East,101,0.0,1.0,65,0.00,,,0.00,weatherlink.com 1.10,2013-10-09 14:20:00,
2013-10-09 10:35:00,60.4,47.0,30.35,East,101,0.0,2.0,62,0.00,,,0.00,weatherlink.com 1.10,2013-10-09 14:35:00,
2013-10-09 10:50:00,62.6,48.0,30.34,East,79,0.0,2.0,59,0.00,,,0.00,weatherlink.com 1.10,2013-10-09 14:50:00,
2013-10-09 11:05:00,63.4,48.0,30.34,NE,37,0.0,3.0,57,0.00,,,0.00,weatherlink.com 1.10,2013-10-09 15:05:00,
2013-10-09 11:20:00,64.5,47.0,30.34,West,264,1.0,3.0,54,0.00,,,0.00,weatherlink.com 1.10,2013-10-09 15:20:00,
2013-10-09 11:35:00,64.7,48.0,30.34,NE,49,0.0,3.0,55,0.00,,,0.00,weatherlink.com 1.10,2013-10-09 15:35:00,
2013-10-09 11:50:00,66.0,49.0,30.33,ESE,114,3.0,3.0,54,0.00,,,0.00,weatherlink.com 1.10,2013-10-09 15:50:00,
2013-10-09 12:05:00,66.6,47.0,30.33,NW,323,0.0,2.0,50,0.00,,,0.00,weatherlink.com 1.10,2013-10-09 16:05:00,
2013-10-09 12:20:00,67.1,47.0,30.33,NE,39,0.0,3.0,49,0.00,,,0.00,weatherlink.com 1.10,2013-10-09 16:20:00,
2013-10-09 12:35:00,67.3,46.0,30.33,NE,47,2.0,5.0,47,0.00,,,0.00,weatherlink.com 1.10,2013-10-09 16:35:00,
2013-10-09 12:51:00,67.8,46.0,30.32,NNE,20,2.0,6.0,45,0.00,,,0.00,weatherlink.com 1.10,2013-10-09 16:51:00,
2013-10-09 13:06:00,67.9,46.0,30.32,WSW,255,0.0,3.0,45,0.00,,,0.00,weatherlink.com 1.10,2013-10-09 17:06:00,
2013-10-09 13:21:00,68.3,45.0,30.31,East,84,5.0,5.0,44,0.00,,,0.00,weatherlink.com 1.10,2013-10-09 17:21:00,
2013-10-09 13:36:00,68.3,46.0,30.30,NE,45,0.0,4.0,45,0.01,,,0.01,weatherlink.com 1.10,2013-10-09 17:36:00,
2013-10-09 14:06:00,69.1,46.0,30.29,East,94,2.0,4.0,43,0.01,,,0.01,weatherlink.com 1.10,2013-10-09 18:06:00,
2013-10-09 14:21:00,69.4,45.0,30.29,ESE,122,0.0,3.0,41,0.00,,,0.01,weatherlink.com 1.10,2013-10-09 18:21:00,
2013-10-09 14:36:00,69.9,44.0,30.28,NNW,331,0.0,4.0,40,0.00,,,0.01,weatherlink.com 1.10,2013-10-09 18:36:00,
2013-10-09 14:51:00,69.8,44.0,30.27,NE,52,3.0,5.0,39,0.00,,,0.01,weatherlink.com 1.10,2013-10-09 18:51:00,
2013-10-09 15:06:00,69.8,44.0,30.27,SW,233,2.0,7.0,40,0.00,,,0.01,weatherlink.com 1.10,2013-10-09 19:06:00,
2013-10-09 15:21:00,69.8,43.0,30.26,NE,47,3.0,6.0,38,0.00,,,0.01,weatherlink.com 1.10,2013-10-09 19:21:00,
2013-10-09 15:36:00,69.8,44.0,30.26,ENE,75,2.0,4.0,40,0.00,,,0.01,weatherlink.com 1.10,2013-10-09 19:36:00,
2013-10-09 15:51:00,69.8,44.0,30.26,NE,38,3.0,4.0,39,0.00,,,0.01,weatherlink.com 1.10,2013-10-09 19:51:00,
2013-10-09 16:06:00,69.9,44.0,30.25,East,80,0.0,4.0,39,0.00,,,0.01,weatherlink.com 1.10,2013-10-09 20:06:00,
2013-10-09 16:21:00,69.9,45.0,30.25,SE,127,0.0,4.0,41,0.00,,,0.01,weatherlink.com 1.10,2013-10-09 20:21:00,
2013-10-09 16:36:00,69.9,44.0,30.25,ESE,118,2.0,3.0,40,0.00,,,0.01,weatherlink.com 1.10,2013-10-09 20:36:00,
2013-10-09 16:51:00,70.1,45.0,30.24,East,82,0.0,7.0,40,0.00,,,0.01,weatherlink.com 1.10,2013-10-09 20:51:00,
2013-10-09 17:06:00,70.3,44.0,30.24,ESE,121,0.0,5.0,39,0.00,,,0.01,weatherlink.com 1.10,2013-10-09 21:06:00,
2013-10-09 17:21:00,70.1,45.0,30.24,SSE,159,0.0,6.0,40,0.00,,,0.01,weatherlink.com 1.10,2013-10-09 21:21:00,
2013-10-09 17:36:00,69.9,44.0,30.24,ENE,65,0.0,4.0,40,0.00,,,0.01,weatherlink.com 1.10,2013-10-09 21:36:00,
2013-10-09 17:51:00,69.6,45.0,30.24,ESE,105,1.0,5.0,41,0.00,,,0.01,weatherlink.com 1.10,2013-10-09 21:51:00,
2013-10-09 18:06:00,69.4,45.0,30.23,ENE,59,0.0,2.0,41,0.00,,,0.01,weatherlink.com 1.10,2013-10-09 22:06:00,
2013-10-09 18:21:00,68.6,45.0,30.23,ENE,59,0.0,1.0,43,0.00,,,0.01,weatherlink.com 1.10,2013-10-09 22:21:00,
2013-10-09 18:36:00,67.3,46.0,30.23,ENE,59,0.0,1.0,46,0.00,,,0.01,weatherlink.com 1.10,2013-10-09 22:36:00,
2013-10-09 18:51:00,66.0,46.0,30.23,ENE,59,0.0,0.0,48,0.00,,,0.01,weatherlink.com 1.10,2013-10-09 22:51:00,
2013-10-09 19:06:00,64.3,46.0,30.23,ENE,59,0.0,0.0,52,0.00,,,0.01,weatherlink.com 1.10,2013-10-09 23:06:00,
2013-10-09 19:21:00,62.6,46.0,30.23,ENE,59,0.0,0.0,55,0.00,,,0.01,weatherlink.com 1.10,2013-10-09 23:21:00,
2013-10-09 19:36:00,61.0,45.0,30.23,ENE,59,0.0,0.0,57,0.00,,,0.01,weatherlink.com 1.10,2013-10-09 23:36:00,
2013-10-09 19:51:00,59.8,45.0,30.23,ENE,59,0.0,0.0,58,0.00,,,0.01,weatherlink.com 1.10,2013-10-09 23:51:00,
2013-10-09 20:06:00,58.7,46.0,30.23,ENE,59,0.0,0.0,62,0.00,,,0.01,weatherlink.com 1.10,2013-10-10 00:06:00,
2013-10-09 20:21:00,57.6,46.0,30.23,ENE,59,0.0,0.0,65,0.00,,,0.01,weatherlink.com 1.10,2013-10-10 00:21:00,
2013-10-09 20:36:00,56.7,46.0,30.23,ENE,59,0.0,0.0,67,0.00,,,0.01,weatherlink.com 1.10,2013-10-10 00:36:00,
2013-10-09 20:51:00,55.9,46.0,30.23,ENE,59,0.0,0.0,69,0.00,,,0.01,weatherlink.com 1.10,2013-10-10 00:51:00,
2013-10-09 21:06:00,55.3,46.0,30.23,ENE,59,0.0,0.0,71,0.00,,,0.01,weatherlink.com 1.10,2013-10-10 01:06:00,
2013-10-09 21:21:00,54.4,46.0,30.23,ENE,59,0.0,0.0,72,0.00,,,0.01,weatherlink.com 1.10,2013-10-10 01:21:00,
2013-10-09 21:36:00,53.6,46.0,30.23,ENE,59,0.0,0.0,75,0.00,,,0.01,weatherlink.com 1.10,2013-10-10 01:36:00,
2013-10-09 21:51:00,53.2,46.0,30.24,ENE,59,0.0,0.0,77,0.00,,,0.01,weatherlink.com 1.10,2013-10-10 01:51:00,
2013-10-09 22:06:00,52.6,46.0,30.24,ENE,59,0.0,0.0,78,0.00,,,0.01,weatherlink.com 1.10,2013-10-10 02:06:00,
2013-10-09 22:21:00,51.9,46.0,30.25,ENE,59,0.0,0.0,79,0.00,,,0.01,weatherlink.com 1.10,2013-10-10 02:21:00,
2013-10-09 22:36:00,51.3,46.0,30.25,ENE,59,0.0,0.0,81,0.00,,,0.01,weatherlink.com 1.10,2013-10-10 02:36:00,
2013-10-09 22:51:00,50.8,46.0,30.25,ENE,59,0.0,0.0,83,0.00,,,0.01,weatherlink.com 1.10,2013-10-10 02:51:00,
2013-10-09 23:06:00,50.7,46.0,30.25,ENE,59,0.0,0.0,84,0.00,,,0.01,weatherlink.com 1.10,2013-10-10 03:06:00,
2013-10-09 23:21:00,50.5,46.0,30.25,ENE,59,0.0,0.0,85,0.00,,,0.01,weatherlink.com 1.10,2013-10-10 03:21:00,
2013-10-09 23:36:00,51.0,46.0,30.25,ENE,59,0.0,1.0,84,0.00,,,0.01,weatherlink.com 1.10,2013-10-10 03:36:00,